Time,TemperatureF,DewpointF,PressureIn,WindDirection,WindDirectionDegrees,WindSpeedMPH,WindSpeedGustMPH,Humidity,HourlyPrecipIn,Conditions,Clouds,dailyrainin,SoftwareType,DateUTC
2013-06-27 00:01:00,70.5,68.4,25.69,ESE,117,1.0,6.0,93,0.00,,---,0.10,VWS V14.01,2013-06-27 04:01:00,
2013-06-27 00:06:00,70.5,68.4,25.69,ESE,117,4.0,6.0,93,0.00,,---,0.00,VWS V14.01,2013-06-27 04:06:00,
2013-06-27 00:11:00,70.5,68.4,25.69,ESE,117,1.0,6.0,93,0.00,,---,0.00,VWS V14.01,2013-06-27 04:11:00,
2013-06-27 00:16:00,70.5,68.4,25.69,SSE,155,4.0,6.0,93,0.00,,---,0.00,VWS V14.01,2013-06-27 04:16:00,
2013-06-27 00:21:00,70.5,68.4,25.69,SSE,167,2.0,6.0,93,0.00,,---,0.00,VWS V14.01,2013-06-27 04:21:00,
2013-06-27 00:26:00,70.4,68.3,25.69,SSE,161,3.0,6.0,93,0.00,,---,0.00,VWS V14.01,2013-06-27 04:26:00,
2013-06-27 00:31:00,70.4,68.3,25.69,SSE,159,4.0,4.0,93,0.00,,---,0.00,VWS V14.01,2013-06-27 04:31:00,
2013-06-27 00:36:00,70.4,68.3,25.69,SE,141,3.0,7.0,93,0.01,,---,0.01,VWS V14.01,2013-06-27 04:36:00,
2013-06-27 00:41:00,70.3,67.9,25.69,SE,141,2.0,7.0,92,0.01,,---,0.01,VWS V14.01,2013-06-27 04:41:00,
2013-06-27 00:46:00,70.3,68.2,25.69,SE,140,5.0,7.0,93,0.01,,---,0.01,VWS V14.01,2013-06-27 04:46:00,
2013-06-27 00:51:00,70.2,68.1,25.69,SE,142,3.0,7.0,93,0.01,,---,0.01,VWS V14.01,2013-06-27 04:51:00,
2013-06-27 00:56:00,70.1,68.0,25.69,SSE,148,5.0,7.0,93,0.01,,---,0.01,VWS V14.01,2013-06-27 04:56:00,
2013-06-27 01:01:00,70.0,67.9,25.69,SE,144,5.0,7.0,93,0.01,,---,0.01,VWS V14.01,2013-06-27 05:01:00,
2013-06-27 01:06:00,69.9,67.8,25.69,SE,144,5.0,7.0,93,0.01,,---,0.01,VWS V14.01,2013-06-27 05:06:00,
2013-06-27 01:11:00,69.9,67.8,17.82,SE,145,6.0,9.0,93,0.01,,---,0.01,VWS V14.01,2013-06-27 05:11:00,
2013-06-27 01:16:00,69.9,67.8,17.82,SE,137,4.0,9.0,93,0.01,,---,0.01,VWS V14.01,2013-06-27 05:16:00,
2013-06-27 01:21:00,69.9,67.8,17.82,SE,134,4.0,9.0,93,0.01,,---,0.01,VWS V14.01,2013-06-27 05:21:00,
2013-06-27 01:26:00,69.9,67.8,17.82,SE,138,5.0,9.0,93,0.01,,---,0.01,VWS V14.01,2013-06-27 05:26:00,
2013-06-27 01:31:00,69.9,67.8,17.82,SE,138,4.0,9.0,93,0.01,,---,0.01,VWS V14.01,2013-06-27 05:31:00,
2013-06-27 01:36:00,69.9,67.8,17.82,SE,140,3.0,6.0,93,0.01,,---,0.01,VWS V14.01,2013-06-27 05:36:00,
2013-06-27 01:41:00,69.9,67.8,17.82,SE,140,3.0,6.0,93,0.01,,---,0.01,VWS V14.01,2013-06-27 05:41:00,
2013-06-27 01:46:00,69.9,67.8,17.82,SE,140,2.0,6.0,93,0.01,,---,0.01,VWS V14.01,2013-06-27 05:46:00,
2013-06-27 01:51:00,69.9,67.8,17.82,SE,142,3.0,8.0,93,0.01,,---,0.01,VWS V14.01,2013-06-27 05:51:00,
2013-06-27 01:56:00,69.9,67.8,25.80,SSE,152,6.0,8.0,93,0.01,,---,0.01,VWS V14.01,2013-06-27 05:56:00,
2013-06-27 02:01:00,69.9,67.8,25.80,SE,141,5.0,8.0,93,0.01,,---,0.01,VWS V14.01,2013-06-27 06:01:00,
2013-06-27 02:06:00,69.9,68.1,25.80,SE,145,5.0,7.0,94,0.00,,---,0.01,VWS V14.01,2013-06-27 06:06:00,
2013-06-27 02:11:00,69.9,68.1,25.80,SE,128,5.0,7.0,94,0.00,,---,0.01,VWS V14.01,2013-06-27 06:11:00,
2013-06-27 02:16:00,69.9,68.1,25.80,SE,132,4.0,7.0,94,0.00,,---,0.01,VWS V14.01,2013-06-27 06:16:00,
2013-06-27 02:21:00,69.8,68.0,25.80,SE,131,4.0,9.0,94,0.00,,---,0.01,VWS V14.01,2013-06-27 06:21:00,
2013-06-27 02:26:00,69.8,68.0,25.80,SSE,151,3.0,9.0,94,0.00,,---,0.01,VWS V14.01,2013-06-27 06:26:00,
2013-06-27 02:31:00,69.8,68.0,25.80,SSE,155,2.0,9.0,94,0.01,,---,0.02,VWS V14.01,2013-06-27 06:31:00,
2013-06-27 02:36:00,69.8,68.0,25.80,SSE,155,1.0,6.0,94,0.01,,---,0.02,VWS V14.01,2013-06-27 06:36:00,
2013-06-27 02:41:00,69.9,68.1,25.80,SSE,155,3.0,6.0,94,0.01,,---,0.02,VWS V14.01,2013-06-27 06:41:00,
2013-06-27 02:46:00,69.9,68.1,25.80,SSE,155,3.0,6.0,94,0.02,,---,0.03,VWS V14.01,2013-06-27 06:46:00,
2013-06-27 02:51:00,69.9,68.1,25.80,SSE,155,0.0,6.0,94,0.03,,---,0.04,VWS V14.01,2013-06-27 06:51:00,
2013-06-27 02:56:00,69.9,68.1,21.10,SSE,155,0.0,6.0,94,0.03,,---,0.04,VWS V14.01,2013-06-27 06:56:00,
2013-06-27 03:01:00,69.9,68.1,21.10,SSE,155,4.0,6.0,94,0.03,,---,0.04,VWS V14.01,2013-06-27 07:01:00,
2013-06-27 03:06:00,69.8,68.0,21.10,SSE,155,2.0,4.0,94,0.03,,---,0.04,VWS V14.01,2013-06-27 07:06:00,
2013-06-27 03:11:00,69.7,68.2,25.80,SSE,155,2.0,4.0,95,0.04,,---,0.05,VWS V14.01,2013-06-27 07:11:00,
2013-06-27 03:16:00,69.6,68.1,25.80,SSE,155,3.0,4.0,95,0.05,,---,0.06,VWS V14.01,2013-06-27 07:16:00,
2013-06-27 03:21:00,69.6,68.1,23.45,SSE,155,0.0,4.0,95,0.06,,---,0.07,VWS V14.01,2013-06-27 07:21:00,
2013-06-27 03:26:00,69.6,68.1,23.45,SSE,155,0.0,4.0,95,0.07,,---,0.08,VWS V14.01,2013-06-27 07:26:00,
2013-06-27 03:31:00,69.6,68.1,23.45,SSE,155,0.0,4.0,95,0.09,,---,0.10,VWS V14.01,2013-06-27 07:31:00,
2013-06-27 03:36:00,69.6,68.1,23.45,SSE,155,0.0,2.0,95,0.10,,---,0.12,VWS V14.01,2013-06-27 07:36:00,
2013-06-27 03:41:00,69.5,68.0,23.45,SSE,155,0.0,2.0,95,0.14,,---,0.16,VWS V14.01,2013-06-27 07:41:00,
2013-06-27 03:46:00,69.5,68.0,23.45,SSE,155,2.0,2.0,95,0.23,,---,0.25,VWS V14.01,2013-06-27 07:46:00,
2013-06-27 03:51:00,69.5,68.0,23.45,SSE,155,1.0,4.0,95,0.30,,---,0.32,VWS V14.01,2013-06-27 07:51:00,
2013-06-27 03:56:00,69.5,68.0,23.45,SSE,155,1.0,4.0,95,0.30,,---,0.32,VWS V14.01,2013-06-27 07:56:00,
2013-06-27 04:01:00,69.5,68.0,23.45,SSE,155,3.0,4.0,95,0.32,,---,0.34,VWS V14.01,2013-06-27 08:01:00,
2013-06-27 04:06:00,69.6,68.1,23.45,SSE,152,4.0,7.0,95,0.30,,---,0.34,VWS V14.01,2013-06-27 08:06:00,
2013-06-27 04:11:00,69.5,68.0,23.45,SSE,148,1.0,7.0,95,0.30,,---,0.34,VWS V14.01,2013-06-27 08:11:00,
2013-06-27 04:16:00,69.4,67.9,23.45,SSE,149,3.0,7.0,95,0.30,,---,0.34,VWS V14.01,2013-06-27 08:16:00,
2013-06-27 04:21:00,69.4,67.9,23.45,SSE,149,2.0,7.0,95,0.30,,---,0.34,VWS V14.01,2013-06-27 08:21:00,
2013-06-27 04:26:00,69.4,67.9,23.45,SSE,149,0.0,7.0,95,0.30,,---,0.34,VWS V14.01,2013-06-27 08:26:00,
2013-06-27 04:31:00,69.4,67.9,23.45,SSE,149,3.0,7.0,95,0.30,,---,0.34,VWS V14.01,2013-06-27 08:31:00,
2013-06-27 04:36:00,69.4,67.9,23.45,SSE,149,0.0,4.0,95,0.24,,---,0.34,VWS V14.01,2013-06-27 08:36:00,
2013-06-27 04:41:00,69.4,67.9,23.45,SSE,149,0.0,4.0,95,0.24,,---,0.34,VWS V14.01,2013-06-27 08:41:00,
2013-06-27 04:46:00,69.4,67.9,23.45,SSE,149,0.0,4.0,95,0.24,,---,0.34,VWS V14.01,2013-06-27 08:46:00,
2013-06-27 04:51:00,69.3,67.8,23.45,South,170,1.0,4.0,95,0.24,,---,0.34,VWS V14.01,2013-06-27 08:51:00,
2013-06-27 04:56:00,69.3,67.8,23.45,South,169,0.0,4.0,95,0.24,,---,0.34,VWS V14.01,2013-06-27 08:56:00,
2013-06-27 05:01:00,69.3,67.8,23.45,South,169,0.0,4.0,95,0.24,,---,0.34,VWS V14.01,2013-06-27 09:01:00,
2013-06-27 05:06:00,69.2,67.7,23.45,South,170,0.0,1.0,95,0.00,,---,0.34,VWS V14.01,2013-06-27 09:06:00,
2013-06-27 05:11:00,69.2,68.0,23.45,South,170,0.0,1.0,96,0.00,,---,0.34,VWS V14.01,2013-06-27 09:11:00,
2013-06-27 05:16:00,69.2,68.0,23.45,South,173,3.0,3.0,96,0.00,,---,0.34,VWS V14.01,2013-06-27 09:16:00,
2013-06-27 05:21:00,69.2,67.7,23.45,South,182,0.0,5.0,95,0.00,,---,0.34,VWS V14.01,2013-06-27 09:21:00,
2013-06-27 05:26:00,69.2,67.7,23.45,SSE,167,4.0,5.0,95,0.00,,---,0.34,VWS V14.01,2013-06-27 09:26:00,
2013-06-27 05:31:00,69.2,68.0,23.45,South,179,5.0,5.0,96,0.00,,---,0.34,VWS V14.01,2013-06-27 09:31:00,
2013-06-27 05:36:00,69.2,68.0,23.45,South,175,0.0,5.0,96,0.00,,---,0.34,VWS V14.01,2013-06-27 09:36:00,
2013-06-27 05:41:00,69.2,68.0,23.45,South,176,1.0,5.0,96,0.00,,---,0.34,VWS V14.01,2013-06-27 09:41:00,
2013-06-27 05:46:00,69.2,68.0,23.45,South,186,4.0,5.0,96,0.00,,---,0.34,VWS V14.01,2013-06-27 09:46:00,
2013-06-27 05:51:00,69.2,68.0,23.45,South,186,0.0,5.0,96,0.00,,---,0.34,VWS V14.01,2013-06-27 09:51:00,
2013-06-27 05:56:00,69.2,68.0,21.09,South,186,0.0,5.0,96,0.00,,---,0.34,VWS V14.01,2013-06-27 09:56:00,
2013-06-27 06:01:00,69.2,68.0,21.09,South,186,0.0,5.0,96,0.00,,---,0.34,VWS V14.01,2013-06-27 10:01:00,
2013-06-27 06:06:00,69.2,68.0,21.09,SSW,196,0.0,3.0,96,0.00,,---,0.34,VWS V14.01,2013-06-27 10:06:00,
2013-06-27 06:11:00,69.2,68.0,21.09,SSW,196,0.0,3.0,96,0.00,,---,0.34,VWS V14.01,2013-06-27 10:11:00,
2013-06-27 06:16:00,69.2,68.0,21.09,SSW,195,0.0,3.0,96,0.00,,---,0.34,VWS V14.01,2013-06-27 10:16:00,
2013-06-27 06:21:00,69.2,68.0,21.09,SSW,196,0.0,3.0,96,0.00,,---,0.34,VWS V14.01,2013-06-27 10:21:00,
2013-06-27 06:26:00,69.3,68.1,21.09,SSW,196,1.0,3.0,96,0.00,,---,0.34,VWS V14.01,2013-06-27 10:26:00,
2013-06-27 06:31:00,69.3,68.1,21.09,SSW,196,0.0,3.0,96,0.00,,---,0.34,VWS V14.01,2013-06-27 10:31:00,
2013-06-27 06:36:00,69.3,68.1,21.09,SSW,195,0.0,0.0,96,0.00,,---,0.34,VWS V14.01,2013-06-27 10:36:00,
2013-06-27 06:41:00,69.3,68.1,16.39,SSW,196,0.0,1.0,96,0.00,,---,0.34,VWS V14.01,2013-06-27 10:41:00,
2013-06-27 06:46:00,69.3,68.1,21.09,SSW,195,0.0,1.0,96,0.00,,---,0.34,VWS V14.01,2013-06-27 10:46:00,
2013-06-27 06:51:00,69.4,68.2,21.09,SSW,196,0.0,1.0,96,0.00,,---,0.34,VWS V14.01,2013-06-27 10:51:00,
2013-06-27 06:56:00,69.4,68.2,21.09,SSW,195,0.0,1.0,96,0.00,,---,0.34,VWS V14.01,2013-06-27 10:56:00,
2013-06-27 07:01:00,69.4,68.2,21.09,SSW,196,0.0,2.0,96,0.00,,---,0.34,VWS V14.01,2013-06-27 11:01:00,
2013-06-27 07:06:00,69.4,68.2,18.75,SSW,196,0.0,0.0,96,0.00,,---,0.34,VWS V14.01,2013-06-27 11:06:00,
2013-06-27 07:11:00,69.4,68.2,18.75,SSW,196,0.0,0.0,96,0.00,,---,0.34,VWS V14.01,2013-06-27 11:11:00,
2013-06-27 07:16:00,69.5,68.3,18.75,SSW,196,0.0,0.0,96,0.00,,---,0.34,VWS V14.01,2013-06-27 11:16:00,
2013-06-27 07:21:00,69.5,68.3,18.75,SSW,195,0.0,1.0,96,0.00,,---,0.34,VWS V14.01,2013-06-27 11:21:00,
2013-06-27 07:26:00,69.5,68.3,18.75,SSW,196,0.0,1.0,96,0.00,,---,0.34,VWS V14.01,2013-06-27 11:26:00,
2013-06-27 07:31:00,69.6,68.4,18.75,SSW,196,0.0,1.0,96,0.00,,---,0.34,VWS V14.01,2013-06-27 11:31:00,
2013-06-27 07:36:00,69.7,68.5,18.75,SSW,196,0.0,3.0,96,0.00,,---,0.34,VWS V14.01,2013-06-27 11:36:00,
2013-06-27 07:41:00,69.7,68.5,21.09,SSW,195,0.0,3.0,96,0.00,,---,0.34,VWS V14.01,2013-06-27 11:41:00,
2013-06-27 07:46:00,69.7,68.5,21.09,SSW,196,1.0,3.0,96,0.00,,---,0.34,VWS V14.01,2013-06-27 11:46:00,
2013-06-27 07:51:00,69.7,68.5,21.09,SSW,195,1.0,3.0,96,0.00,,---,0.34,VWS V14.01,2013-06-27 11:51:00,
2013-06-27 07:56:00,69.9,68.7,18.75,SSW,195,0.0,3.0,96,0.00,,---,0.34,VWS V14.01,2013-06-27 11:56:00,
2013-06-27 08:01:00,70.1,68.9,18.75,SSW,195,0.0,3.0,96,0.00,,---,0.34,VWS V14.01,2013-06-27 12:01:00,
2013-06-27 08:06:00,70.1,68.9,18.75,SSW,196,0.0,3.0,96,0.00,,---,0.34,VWS V14.01,2013-06-27 12:06:00,
2013-06-27 08:11:00,70.1,68.9,18.75,SSW,195,1.0,4.0,96,0.00,,---,0.34,VWS V14.01,2013-06-27 12:11:00,
2013-06-27 08:16:00,70.2,69.0,18.75,SSW,201,4.0,4.0,96,0.00,,---,0.34,VWS V14.01,2013-06-27 12:16:00,
2013-06-27 08:21:00,70.3,69.1,18.75,NW,306,0.0,4.0,96,0.00,,---,0.34,VWS V14.01,2013-06-27 12:21:00,
2013-06-27 08:26:00,70.4,69.2,18.75,WNW,295,0.0,4.0,96,0.00,,---,0.34,VWS V14.01,2013-06-27 12:26:00,
2013-06-27 08:31:00,70.6,69.4,18.75,WNW,296,0.0,5.0,96,0.00,,---,0.34,VWS V14.01,2013-06-27 12:31:00,
2013-06-27 08:36:00,70.8,69.6,18.75,West,273,0.0,6.0,96,0.00,,---,0.34,VWS V14.01,2013-06-27 12:36:00,
2013-06-27 08:41:00,71.1,69.9,18.75,West,273,0.0,6.0,96,0.00,,---,0.34,VWS V14.01,2013-06-27 12:41:00,
2013-06-27 08:46:00,71.5,70.3,18.75,WNW,299,4.0,6.0,96,0.00,,---,0.34,VWS V14.01,2013-06-27 12:46:00,
2013-06-27 08:51:00,71.7,70.5,18.75,WNW,299,2.0,6.0,96,0.00,,---,0.34,VWS V14.01,2013-06-27 12:51:00,
2013-06-27 08:56:00,71.5,70.3,18.75,WNW,295,2.0,7.0,96,0.00,,---,0.34,VWS V14.01,2013-06-27 12:56:00,
2013-06-27 09:01:00,71.3,70.1,21.09,WSW,245,1.0,9.0,96,0.00,,---,0.34,VWS V14.01,2013-06-27 13:01:00,
2013-06-27 09:06:00,71.3,70.1,21.09,NW,322,8.0,10.0,96,0.00,,---,0.34,VWS V14.01,2013-06-27 13:06:00,
2013-06-27 09:11:00,71.3,70.1,21.09,NW,306,3.0,10.0,96,0.00,,---,0.34,VWS V14.01,2013-06-27 13:11:00,
2013-06-27 09:16:00,71.5,70.3,21.09,NW,308,5.0,10.0,96,0.00,,---,0.34,VWS V14.01,2013-06-27 13:16:00,
2013-06-27 09:21:00,71.6,70.4,21.09,NW,311,4.0,10.0,96,0.00,,---,0.34,VWS V14.01,2013-06-27 13:21:00,
2013-06-27 09:26:00,72.0,70.8,21.09,NW,317,7.0,10.0,96,0.00,,---,0.34,VWS V14.01,2013-06-27 13:26:00,
2013-06-27 09:31:00,72.4,71.2,21.09,NW,307,5.0,10.0,96,0.00,,---,0.34,VWS V14.01,2013-06-27 13:31:00,
2013-06-27 09:36:00,72.6,71.1,21.09,WNW,299,0.0,8.0,95,0.00,,---,0.34,VWS V14.01,2013-06-27 13:36:00,
2013-06-27 09:41:00,72.5,71.0,21.09,West,279,3.0,12.0,95,0.00,,---,0.34,VWS V14.01,2013-06-27 13:41:00,
2013-06-27 09:46:00,72.6,71.1,21.09,West,275,3.0,12.0,95,0.00,,---,0.34,VWS V14.01,2013-06-27 13:46:00,
2013-06-27 09:51:00,73.0,71.5,21.09,WNW,298,3.0,12.0,95,0.00,,---,0.34,VWS V14.01,2013-06-27 13:51:00,
2013-06-27 09:56:00,73.1,71.3,21.09,WNW,284,6.0,12.0,94,0.00,,---,0.34,VWS V14.01,2013-06-27 13:56:00,
2013-06-27 10:01:00,73.5,71.4,25.80,NNW,333,9.0,12.0,93,0.00,,---,0.34,VWS V14.01,2013-06-27 14:01:00,
2013-06-27 10:06:00,73.8,71.3,25.80,WNW,292,3.0,9.0,92,0.00,,---,0.34,VWS V14.01,2013-06-27 14:06:00,
2013-06-27 10:11:00,74.0,71.2,25.80,NW,311,5.0,9.0,91,0.00,,---,0.34,VWS V14.01,2013-06-27 14:11:00,
2013-06-27 10:15:00,74.3,71.5,21.09,WNW,298,9.0,11.0,91,0.00,,---,0.34,VWS V14.01,2013-06-27 14:15:00,
2013-06-27 10:20:00,74.9,71.8,21.09,NW,309,6.0,11.0,90,0.00,,---,0.34,VWS V14.01,2013-06-27 14:20:00,
2013-06-27 10:25:00,75.6,72.5,23.44,NW,313,5.0,11.0,90,0.00,,---,0.34,VWS V14.01,2013-06-27 14:25:00,
2013-06-27 10:30:00,76.0,72.2,23.44,NW,321,10.0,13.0,88,0.00,,---,0.34,VWS V14.01,2013-06-27 14:30:00,
2013-06-27 10:35:00,76.2,72.1,23.44,NW,326,8.0,12.0,87,0.00,,---,0.34,VWS V14.01,2013-06-27 14:35:00,
2013-06-27 10:40:00,76.1,71.3,23.44,NNW,329,9.0,13.0,85,0.00,,---,0.34,VWS V14.01,2013-06-27 14:40:00,
2013-06-27 10:45:00,76.4,71.6,23.44,NNW,340,5.0,13.0,85,0.00,,---,0.34,VWS V14.01,2013-06-27 14:45:00,
2013-06-27 10:46:00,76.4,71.6,23.44,NNW,340,5.0,13.0,85,0.00,,---,0.34,VWS V14.01,2013-06-27 14:46:00,
2013-06-27 10:51:00,77.1,72.2,23.44,NNW,333,6.0,13.0,85,0.00,,---,0.34,VWS V14.01,2013-06-27 14:51:00,
2013-06-27 10:56:00,77.5,71.9,23.44,NW,323,8.0,14.0,83,0.00,,---,0.34,VWS V14.01,2013-06-27 14:56:00,
2013-06-27 11:01:00,77.6,72.0,23.44,WNW,298,5.0,14.0,83,0.00,,---,0.34,VWS V14.01,2013-06-27 15:01:00,
2013-06-27 11:06:00,77.9,72.3,23.44,North,355,14.0,14.0,83,0.00,,---,0.34,VWS V14.01,2013-06-27 15:06:00,
2013-06-27 11:11:00,78.6,73.0,23.44,NNE,15,7.0,14.0,83,0.00,,---,0.34,VWS V14.01,2013-06-27 15:11:00,
2013-06-27 11:16:00,78.4,72.1,23.44,NW,315,3.0,14.0,81,0.00,,---,0.34,VWS V14.01,2013-06-27 15:16:00,
2013-06-27 11:21:00,77.8,71.5,23.44,NW,319,4.0,14.0,81,0.00,,---,0.34,VWS V14.01,2013-06-27 15:21:00,
2013-06-27 11:26:00,77.3,71.4,28.04,NW,323,8.0,14.0,82,0.00,,---,0.34,VWS V14.01,2013-06-27 15:26:00,
2013-06-27 11:31:00,77.0,71.4,28.04,WNW,300,7.0,14.0,83,0.00,,---,0.34,VWS V14.01,2013-06-27 15:31:00,
2013-06-27 11:36:00,77.1,71.9,28.04,NNW,338,9.0,10.0,84,0.00,,---,0.34,VWS V14.01,2013-06-27 15:36:00,
2013-06-27 11:41:00,77.8,72.2,28.04,NNW,348,10.0,10.0,83,0.00,,---,0.34,VWS V14.01,2013-06-27 15:41:00,
2013-06-27 11:46:00,78.7,73.5,28.04,North,355,6.0,12.0,84,0.00,,---,0.34,VWS V14.01,2013-06-27 15:46:00,
2013-06-27 11:51:00,79.2,72.5,28.04,NNW,338,9.0,12.0,80,0.00,,---,0.34,VWS V14.01,2013-06-27 15:51:00,
2013-06-27 11:56:00,79.9,73.6,28.04,NNW,327,10.0,13.0,81,0.00,,---,0.34,VWS V14.01,2013-06-27 15:56:00,
2013-06-27 12:01:00,80.1,72.6,30.35,WNW,290,6.0,13.0,78,0.00,,---,0.34,VWS V14.01,2013-06-27 16:01:00,
2013-06-27 12:06:00,79.6,72.1,30.35,NNW,334,6.0,12.0,78,0.00,,---,0.34,VWS V14.01,2013-06-27 16:06:00,
2013-06-27 12:11:00,79.1,71.7,30.35,NW,321,4.0,12.0,78,0.00,,---,0.34,VWS V14.01,2013-06-27 16:11:00,
2013-06-27 12:16:00,78.7,71.3,30.35,North,349,9.0,12.0,78,0.00,,---,0.34,VWS V14.01,2013-06-27 16:16:00,
2013-06-27 12:21:00,78.4,71.0,30.35,North,355,4.0,12.0,78,0.00,,---,0.34,VWS V14.01,2013-06-27 16:21:00,
2013-06-27 12:26:00,78.7,71.6,28.97,North,355,9.0,12.0,79,0.00,,---,0.34,VWS V14.01,2013-06-27 16:26:00,
2013-06-27 12:31:00,78.7,71.3,28.97,North,360,5.0,12.0,78,0.00,,---,0.34,VWS V14.01,2013-06-27 16:31:00,
2013-06-27 12:36:00,78.7,72.0,28.97,NNE,15,7.0,11.0,80,0.00,,---,0.34,VWS V14.01,2013-06-27 16:36:00,
2013-06-27 12:41:00,78.7,72.0,28.97,NW,325,9.0,11.0,80,0.00,,---,0.34,VWS V14.01,2013-06-27 16:41:00,
2013-06-27 12:46:00,79.1,70.9,28.97,NW,319,5.0,11.0,76,0.00,,---,0.34,VWS V14.01,2013-06-27 16:46:00,
2013-06-27 12:51:00,79.0,71.2,28.97,NNW,344,9.0,11.0,77,0.00,,---,0.34,VWS V14.01,2013-06-27 16:51:00,
2013-06-27 12:56:00,78.7,70.9,28.97,NW,315,9.0,11.0,77,0.00,,---,0.34,VWS V14.01,2013-06-27 16:56:00,
2013-06-27 13:01:00,78.9,71.5,28.97,NNW,329,4.0,11.0,78,0.00,,---,0.34,VWS V14.01,2013-06-27 17:01:00,
2013-06-27 13:06:00,79.3,71.8,25.41,North,349,10.0,12.0,78,0.00,,---,0.34,VWS V14.01,2013-06-27 17:06:00,
2013-06-27 13:11:00,79.8,72.3,25.41,NW,310,5.0,13.0,78,0.00,,---,0.34,VWS V14.01,2013-06-27 17:11:00,
2013-06-27 13:16:00,80.5,71.8,25.41,West,280,7.0,14.0,75,0.00,,---,0.34,VWS V14.01,2013-06-27 17:16:00,
2013-06-27 13:21:00,80.6,71.2,25.41,NW,306,1.0,14.0,73,0.00,,---,0.34,VWS V14.01,2013-06-27 17:21:00,
2013-06-27 13:25:00,80.7,71.7,25.41,NNW,329,6.0,14.0,74,0.00,,---,0.34,VWS V14.01,2013-06-27 17:25:00,
2013-06-27 13:30:00,81.0,71.5,25.41,WNW,296,1.0,15.0,73,0.00,,---,0.34,VWS V14.01,2013-06-27 17:30:00,
2013-06-27 13:35:00,81.3,72.2,25.41,NW,323,10.0,12.0,74,0.00,,---,0.34,VWS V14.01,2013-06-27 17:35:00,
2013-06-27 13:40:00,81.5,72.0,25.41,WNW,292,10.0,12.0,73,0.00,,---,0.34,VWS V14.01,2013-06-27 17:40:00,
2013-06-27 13:46:00,81.8,71.9,25.41,NW,306,6.0,15.0,72,0.00,,---,0.34,VWS V14.01,2013-06-27 17:46:00,
2013-06-27 13:50:00,82.0,71.3,25.41,NNW,333,13.0,15.0,70,0.00,,---,0.34,VWS V14.01,2013-06-27 17:50:00,
2013-06-27 13:55:00,82.3,71.5,25.41,NW,325,10.0,16.0,70,0.00,,---,0.34,VWS V14.01,2013-06-27 17:55:00,
2013-06-27 14:00:00,82.7,72.3,25.41,NW,318,12.0,16.0,71,0.00,,---,0.34,VWS V14.01,2013-06-27 18:00:00,
2013-06-27 14:05:00,83.2,72.0,25.41,WNW,291,12.0,15.0,69,0.00,,---,0.34,VWS V14.01,2013-06-27 18:05:00,
2013-06-27 14:10:00,83.7,72.9,25.41,NW,318,12.0,16.0,70,0.00,,---,0.34,VWS V14.01,2013-06-27 18:10:00,
2013-06-27 14:15:00,83.7,72.0,25.41,NNW,329,10.0,16.0,68,0.00,,---,0.34,VWS V14.01,2013-06-27 18:15:00,
2013-06-27 14:20:00,83.7,72.0,25.41,NW,321,8.0,16.0,68,0.00,,---,0.34,VWS V14.01,2013-06-27 18:20:00,
2013-06-27 14:25:00,83.4,72.2,25.41,NW,311,6.0,17.0,69,0.00,,---,0.34,VWS V14.01,2013-06-27 18:25:00,
2013-06-27 14:30:00,83.6,71.9,25.41,NW,304,12.0,17.0,68,0.00,,---,0.34,VWS V14.01,2013-06-27 18:30:00,
2013-06-27 14:35:00,83.9,71.8,25.41,NW,322,12.0,14.0,67,0.00,,---,0.34,VWS V14.01,2013-06-27 18:35:00,
2013-06-27 14:40:00,83.8,71.7,25.41,WNW,282,9.0,14.0,67,0.00,,---,0.34,VWS V14.01,2013-06-27 18:40:00,
2013-06-27 14:45:00,83.1,71.4,25.41,NW,313,7.0,14.0,68,0.00,,---,0.34,VWS V14.01,2013-06-27 18:45:00,
2013-06-27 14:50:00,82.9,71.3,25.41,NW,315,7.0,16.0,68,0.00,,---,0.34,VWS V14.01,2013-06-27 18:50:00,
2013-06-27 14:55:00,83.2,71.6,25.41,NW,308,12.0,16.0,68,0.00,,---,0.34,VWS V14.01,2013-06-27 18:55:00,
2013-06-27 15:00:00,83.7,72.0,25.41,NW,313,6.0,16.0,68,0.00,,---,0.34,VWS V14.01,2013-06-27 19:00:00,
2013-06-27 15:05:00,84.3,72.2,25.41,WNW,303,9.0,11.0,67,0.00,,---,0.34,VWS V14.01,2013-06-27 19:05:00,
2013-06-27 15:10:00,84.0,71.9,25.41,WNW,296,4.0,12.0,67,0.00,,---,0.34,VWS V14.01,2013-06-27 19:10:00,
2013-06-27 15:15:00,83.6,71.9,25.41,NW,304,10.0,13.0,68,0.00,,---,0.34,VWS V14.01,2013-06-27 19:15:00,
2013-06-27 15:20:00,83.6,71.9,25.41,NNW,330,8.0,13.0,68,0.00,,---,0.34,VWS V14.01,2013-06-27 19:20:00,
2013-06-27 15:25:00,83.8,72.6,25.41,NW,311,6.0,13.0,69,0.00,,---,0.34,VWS V14.01,2013-06-27 19:25:00,
2013-06-27 15:30:00,84.5,73.2,25.41,NW,319,10.0,13.0,69,0.00,,---,0.34,VWS V14.01,2013-06-27 19:30:00,
2013-06-27 15:35:00,85.1,72.9,25.41,NW,306,11.0,14.0,67,0.00,,---,0.34,VWS V14.01,2013-06-27 19:35:00,
2013-06-27 15:40:00,85.3,72.7,25.41,NW,305,7.0,14.0,66,0.00,,---,0.34,VWS V14.01,2013-06-27 19:40:00,
2013-06-27 15:45:00,85.3,72.2,25.41,WNW,294,4.0,14.0,65,0.00,,---,0.34,VWS V14.01,2013-06-27 19:45:00,
2013-06-27 15:50:00,85.3,73.6,25.41,NNW,346,3.0,14.0,68,0.00,,---,0.34,VWS V14.01,2013-06-27 19:50:00,
2013-06-27 15:55:00,85.5,72.8,25.41,West,278,1.0,15.0,66,0.00,,---,0.34,VWS V14.01,2013-06-27 19:55:00,
2013-06-27 16:00:00,85.5,71.5,25.41,NW,325,4.0,15.0,63,0.00,,---,0.34,VWS V14.01,2013-06-27 20:00:00,
2013-06-27 16:05:00,85.3,71.3,25.41,West,275,12.0,16.0,63,0.00,,---,0.34,VWS V14.01,2013-06-27 20:05:00,
2013-06-27 16:10:00,84.7,70.7,25.41,WNW,294,4.0,16.0,63,0.00,,---,0.34,VWS V14.01,2013-06-27 20:10:00,
2013-06-27 16:15:00,84.1,72.8,25.41,WSW,242,1.0,16.0,69,0.00,,---,0.34,VWS V14.01,2013-06-27 20:15:00,
2013-06-27 16:20:00,84.4,71.4,25.41,WNW,287,8.0,16.0,65,0.00,,---,0.34,VWS V14.01,2013-06-27 20:20:00,
2013-06-27 16:25:00,84.4,71.8,25.41,West,268,2.0,16.0,66,0.00,,---,0.34,VWS V14.01,2013-06-27 20:25:00,
2013-06-27 16:31:00,84.8,72.6,25.41,NW,321,6.0,16.0,67,0.00,,---,0.34,VWS V14.01,2013-06-27 20:31:00,
2013-06-27 16:36:00,85.0,72.4,25.41,NNW,330,2.0,9.0,66,0.00,,---,0.34,VWS V14.01,2013-06-27 20:36:00,
2013-06-27 16:41:00,84.5,72.8,25.41,WSW,251,2.0,13.0,68,0.00,,---,0.34,VWS V14.01,2013-06-27 20:41:00,
2013-06-27 16:46:00,83.5,71.4,25.41,NW,310,3.0,13.0,67,0.00,,---,0.34,VWS V14.01,2013-06-27 20:46:00,
2013-06-27 16:51:00,83.0,71.8,25.41,NW,323,2.0,13.0,69,0.00,,---,0.34,VWS V14.01,2013-06-27 20:51:00,
2013-06-27 16:56:00,83.5,71.8,25.41,NNW,334,10.0,13.0,68,0.00,,---,0.34,VWS V14.01,2013-06-27 20:56:00,
2013-06-27 17:01:00,84.0,71.0,25.41,NW,323,8.0,11.0,65,0.00,,---,0.34,VWS V14.01,2013-06-27 21:01:00,
2013-06-27 17:06:00,84.5,71.4,25.41,NNW,348,6.0,13.0,65,0.00,,---,0.34,VWS V14.01,2013-06-27 21:06:00,
2013-06-27 17:11:00,84.9,71.4,25.41,NNW,327,8.0,13.0,64,0.00,,---,0.34,VWS V14.01,2013-06-27 21:11:00,
2013-06-27 17:17:00,85.1,71.1,25.41,NW,304,11.0,13.0,63,0.00,,---,0.34,VWS V14.01,2013-06-27 21:17:00,
2013-06-27 17:22:00,85.3,71.3,25.41,NW,315,7.0,13.0,63,0.00,,---,0.34,VWS V14.01,2013-06-27 21:22:00,
2013-06-27 17:27:00,85.2,71.7,25.41,NW,322,13.0,14.0,64,0.00,,---,0.34,VWS V14.01,2013-06-27 21:27:00,
2013-06-27 17:32:00,85.2,70.7,25.41,NW,304,6.0,16.0,62,0.00,,---,0.34,VWS V14.01,2013-06-27 21:32:00,
2013-06-27 17:37:00,85.1,71.1,25.41,West,275,11.0,16.0,63,0.00,,---,0.34,VWS V14.01,2013-06-27 21:37:00,
2013-06-27 17:42:00,85.0,70.5,25.41,WNW,293,6.0,16.0,62,0.00,,---,0.34,VWS V14.01,2013-06-27 21:42:00,
2013-06-27 17:48:00,85.2,71.7,25.41,NNW,347,4.0,16.0,64,0.00,,---,0.34,VWS V14.01,2013-06-27 21:48:00,
2013-06-27 17:53:00,85.3,71.3,25.41,WNW,296,10.0,16.0,63,0.00,,---,0.34,VWS V14.01,2013-06-27 21:53:00,
2013-06-27 17:58:00,85.3,71.3,25.41,WNW,300,4.0,16.0,63,0.00,,---,0.34,VWS V14.01,2013-06-27 21:58:00,
2013-06-27 18:04:00,85.3,70.8,25.41,NW,317,6.0,16.0,62,0.00,,---,0.34,VWS V14.01,2013-06-27 22:04:00,
2013-06-27 18:09:00,84.9,70.0,25.41,NW,306,5.0,16.0,61,0.00,,---,0.34,VWS V14.01,2013-06-27 22:09:00,
2013-06-27 18:14:00,84.5,71.0,25.41,NW,309,7.0,16.0,64,0.00,,---,0.34,VWS V14.01,2013-06-27 22:14:00,
2013-06-27 18:19:00,84.3,70.8,25.41,NW,325,14.0,16.0,64,0.00,,---,0.34,VWS V14.01,2013-06-27 22:19:00,
2013-06-27 18:24:00,84.6,70.6,25.41,WNW,298,5.0,16.0,63,0.00,,---,0.34,VWS V14.01,2013-06-27 22:24:00,
2013-06-27 18:30:00,84.1,70.2,25.41,NW,315,11.0,16.0,63,0.00,,---,0.34,VWS V14.01,2013-06-27 22:30:00,
2013-06-27 18:35:00,83.8,70.8,25.41,WNW,293,5.0,13.0,65,0.00,,---,0.34,VWS V14.01,2013-06-27 22:35:00,
2013-06-27 18:40:00,84.0,71.4,25.41,West,265,12.0,13.0,66,0.00,,---,0.34,VWS V14.01,2013-06-27 22:40:00,
2013-06-27 18:45:00,84.8,72.2,25.41,NNW,343,3.0,13.0,66,0.00,,---,0.34,VWS V14.01,2013-06-27 22:45:00,
2013-06-27 18:50:00,85.2,71.7,25.41,NW,323,4.0,13.0,64,0.00,,---,0.34,VWS V14.01,2013-06-27 22:50:00,
2013-06-27 18:55:00,85.2,71.7,25.41,NW,311,9.0,13.0,64,0.00,,---,0.34,VWS V14.01,2013-06-27 22:55:00,
2013-06-27 19:00:00,84.8,70.3,25.41,NW,324,10.0,18.0,62,0.00,,---,0.34,VWS V14.01,2013-06-27 23:00:00,
2013-06-27 19:05:00,84.2,70.2,25.41,NNW,330,1.0,16.0,63,0.00,,---,0.34,VWS V14.01,2013-06-27 23:05:00,
2013-06-27 19:11:00,83.9,70.9,25.41,NNW,337,12.0,16.0,65,0.00,,---,0.34,VWS V14.01,2013-06-27 23:11:00,
2013-06-27 19:17:00,83.5,70.5,25.41,WNW,284,6.0,16.0,65,0.00,,---,0.34,VWS V14.01,2013-06-27 23:17:00,
2013-06-27 19:22:00,82.9,69.9,25.41,NNW,329,3.0,16.0,65,0.00,,---,0.34,VWS V14.01,2013-06-27 23:22:00,
2013-06-27 19:27:00,82.6,70.5,25.41,North,350,6.0,16.0,67,0.00,,---,0.34,VWS V14.01,2013-06-27 23:27:00,
2013-06-27 19:33:00,82.5,70.4,25.41,WNW,289,4.0,8.0,67,0.00,,---,0.34,VWS V14.01,2013-06-27 23:33:00,
2013-06-27 19:38:00,82.2,70.2,25.41,WNW,284,3.0,8.0,67,0.00,,---,0.34,VWS V14.01,2013-06-27 23:38:00,
2013-06-27 19:43:00,81.9,70.3,25.41,NW,315,1.0,11.0,68,0.00,,---,0.34,VWS V14.01,2013-06-27 23:43:00,
2013-06-27 19:49:00,81.5,70.4,25.41,WNW,300,4.0,11.0,69,0.00,,---,0.34,VWS V14.01,2013-06-27 23:49:00,
2013-06-27 19:54:00,81.4,70.7,25.41,SW,234,13.0,13.0,70,0.00,,---,0.34,VWS V14.01,2013-06-27 23:54:00,
2013-06-27 19:59:00,81.4,70.7,25.41,NW,313,2.0,16.0,70,0.00,,---,0.34,VWS V14.01,2013-06-27 23:59:00,
2013-06-27 20:04:00,81.4,71.1,25.41,NW,309,6.0,11.0,71,0.00,,---,0.34,VWS V14.01,2013-06-28 00:04:00,
2013-06-27 20:09:00,81.2,70.5,25.41,WNW,293,2.0,13.0,70,0.00,,---,0.34,VWS V14.01,2013-06-28 00:09:00,
2013-06-27 20:14:00,80.9,69.8,25.41,NW,315,6.0,20.0,69,0.00,,---,0.34,VWS V14.01,2013-06-28 00:14:00,
2013-06-27 20:19:00,80.8,69.7,25.41,West,273,4.0,20.0,69,0.00,,---,0.34,VWS V14.01,2013-06-28 00:19:00,
2013-06-27 20:25:00,80.6,69.5,25.41,WNW,302,10.0,20.0,69,0.00,,---,0.34,VWS V14.01,2013-06-28 00:25:00,
2013-06-27 20:30:00,80.3,69.2,25.41,WNW,296,5.0,20.0,69,0.00,,---,0.34,VWS V14.01,2013-06-28 00:30:00,
2013-06-27 20:35:00,80.0,69.3,25.41,NW,309,7.0,11.0,70,0.00,,---,0.34,VWS V14.01,2013-06-28 00:35:00,
2013-06-27 20:40:00,79.8,69.2,25.41,NW,311,7.0,12.0,70,0.00,,---,0.34,VWS V14.01,2013-06-28 00:40:00,
2013-06-27 20:45:00,79.6,69.0,25.41,NW,321,10.0,14.0,70,0.00,,---,0.34,VWS V14.01,2013-06-28 00:45:00,
2013-06-27 20:51:00,79.4,68.8,25.41,NW,314,9.0,14.0,70,0.00,,---,0.34,VWS V14.01,2013-06-28 00:51:00,
2013-06-27 20:56:00,79.3,69.1,25.41,WNW,303,12.0,14.0,71,0.00,,---,0.34,VWS V14.01,2013-06-28 00:56:00,
2013-06-27 21:01:00,79.0,68.8,25.41,NW,325,7.0,14.0,71,0.00,,---,0.34,VWS V14.01,2013-06-28 01:01:00,
2013-06-27 21:06:00,78.7,68.9,25.41,NNW,340,6.0,10.0,72,0.00,,---,0.34,VWS V14.01,2013-06-28 01:06:00,
2013-06-27 21:11:00,78.4,69.0,25.41,NW,323,8.0,10.0,73,0.00,,---,0.34,VWS V14.01,2013-06-28 01:11:00,
2013-06-27 21:16:00,78.2,69.2,25.41,North,350,9.0,14.0,74,0.00,,---,0.34,VWS V14.01,2013-06-28 01:16:00,
2013-06-27 21:22:00,77.6,67.9,25.41,NNE,24,5.0,16.0,72,0.00,,---,0.34,VWS V14.01,2013-06-28 01:22:00,
2013-06-27 21:27:00,76.7,67.4,25.41,North,360,25.0,25.0,73,0.00,,---,0.34,VWS V14.01,2013-06-28 01:27:00,
2013-06-27 21:32:00,75.6,67.1,25.41,NNE,14,14.0,15.0,75,0.00,,---,0.34,VWS V14.01,2013-06-28 01:32:00,
2013-06-27 21:37:00,74.7,67.0,25.41,NNE,17,1.0,17.0,77,0.00,,---,0.34,VWS V14.01,2013-06-28 01:37:00,
2013-06-27 21:42:00,73.6,67.1,25.41,NNE,19,4.0,17.0,80,0.00,,---,0.34,VWS V14.01,2013-06-28 01:42:00,
2013-06-27 21:48:00,72.8,66.6,25.41,NE,37,1.0,17.0,81,0.00,,---,0.34,VWS V14.01,2013-06-28 01:48:00,
2013-06-27 21:53:00,72.2,66.8,25.41,NE,34,0.0,17.0,83,0.00,,---,0.34,VWS V14.01,2013-06-28 01:53:00,
2013-06-27 21:58:00,71.5,66.4,25.41,NE,38,0.0,17.0,84,0.00,,---,0.34,VWS V14.01,2013-06-28 01:58:00,
2013-06-27 22:03:00,71.1,66.4,25.41,NE,40,3.0,3.0,85,0.00,,---,0.34,VWS V14.01,2013-06-28 02:03:00,
2013-06-27 22:08:00,70.8,66.1,25.41,NE,39,0.0,4.0,85,0.00,,---,0.34,VWS V14.01,2013-06-28 02:08:00,
2013-06-27 22:14:00,70.5,66.1,25.41,NE,39,0.0,4.0,86,0.00,,---,0.34,VWS V14.01,2013-06-28 02:14:00,
2013-06-27 22:19:00,70.4,66.0,25.41,NE,39,4.0,4.0,86,0.00,,---,0.34,VWS V14.01,2013-06-28 02:19:00,
2013-06-27 22:24:00,70.3,66.2,25.41,NE,42,0.0,4.0,87,0.00,,---,0.34,VWS V14.01,2013-06-28 02:24:00,
2013-06-27 22:29:00,70.1,66.4,25.41,NE,42,1.0,4.0,88,0.00,,---,0.34,VWS V14.01,2013-06-28 02:29:00,
2013-06-27 22:34:00,70.1,66.4,25.41,NE,42,0.0,5.0,88,0.00,,---,0.34,VWS V14.01,2013-06-28 02:34:00,
2013-06-27 22:39:00,70.0,66.3,25.41,NE,42,0.0,5.0,88,0.00,,---,0.34,VWS V14.01,2013-06-28 02:39:00,
2013-06-27 22:45:00,69.9,66.2,25.41,NE,42,2.0,5.0,88,0.00,,---,0.34,VWS V14.01,2013-06-28 02:45:00,
2013-06-27 22:50:00,69.9,66.5,25.41,NE,42,2.0,5.0,89,0.00,,---,0.34,VWS V14.01,2013-06-28 02:50:00,
2013-06-27 22:55:00,69.7,66.3,25.41,NE,42,0.0,5.0,89,0.00,,---,0.34,VWS V14.01,2013-06-28 02:55:00,
2013-06-27 23:00:00,69.6,66.2,25.41,NE,42,2.0,5.0,89,0.00,,---,0.34,VWS V14.01,2013-06-28 03:00:00,
2013-06-27 23:06:00,69.5,66.4,25.41,NE,42,3.0,4.0,90,0.00,,---,0.34,VWS V14.01,2013-06-28 03:06:00,
2013-06-27 23:11:00,69.4,66.3,25.41,ESE,105,3.0,5.0,90,0.00,,---,0.34,VWS V14.01,2013-06-28 03:11:00,
2013-06-27 23:16:00,69.2,66.2,25.41,SE,130,1.0,6.0,90,0.00,,---,0.34,VWS V14.01,2013-06-28 03:16:00,
2013-06-27 23:21:00,69.2,66.2,25.41,SE,130,2.0,6.0,90,0.00,,---,0.34,VWS V14.01,2013-06-28 03:21:00,
2013-06-27 23:26:00,69.2,66.2,25.41,SE,137,3.0,6.0,90,0.00,,---,0.34,VWS V14.01,2013-06-28 03:26:00,
2013-06-27 23:31:00,69.1,66.1,25.41,SE,137,3.0,3.0,90,0.00,,---,0.34,VWS V14.01,2013-06-28 03:31:00,
2013-06-27 23:37:00,69.0,65.9,25.41,SE,137,1.0,4.0,90,0.00,,---,0.34,VWS V14.01,2013-06-28 03:37:00,
2013-06-27 23:42:00,68.8,65.8,25.41,SE,142,4.0,5.0,90,0.00,,---,0.34,VWS V14.01,2013-06-28 03:42:00,
2013-06-27 23:47:00,68.7,65.7,25.41,South,175,6.0,7.0,90,0.00,,---,0.34,VWS V14.01,2013-06-28 03:47:00,
2013-06-27 23:52:00,68.7,65.7,25.41,South,188,5.0,7.0,90,0.00,,---,0.34,VWS V14.01,2013-06-28 03:52:00,
2013-06-27 23:57:00,68.7,65.3,25.41,South,186,4.0,7.0,89,0.00,,---,0.34,VWS V14.01,2013-06-28 03:57:00,